Year,Month,Day,Hour,Minute,Value (Times are PST for temperature in C)
2019,03,20,00,00,8.20
2019,03,20,00,01,8.20
2019,03,20,00,02,8.20
2019,03,20,00,03,8.20
2019,03,20,00,04,8.20
2019,03,20,00,05,8.20
2019,03,20,00,06,8.20
2019,03,20,00,07,8.20
2019,03,20,00,08,8.30
2019,03,20,00,09,8.30
2019,03,20,00,10,8.30
2019,03,20,00,11,8.40
2019,03,20,00,12,8.40
2019,03,20,00,13,8.50
2019,03,20,00,14,8.50
2019,03,20,00,15,8.60
2019,03,20,00,16,8.60
2019,03,20,00,17,8.60
2019,03,20,00,18,8.60
2019,03,20,00,19,8.70
2019,03,20,00,20,8.70
2019,03,20,00,21,8.70
2019,03,20,00,22,8.80
2019,03,20,00,23,8.80
2019,03,20,00,24,8.80
2019,03,20,00,25,8.80
2019,03,20,00,26,8.80
2019,03,20,00,27,8.80
2019,03,20,00,28,8.80
2019,03,20,00,29,8.80
2019,03,20,00,30,8.80
2019,03,20,00,31,8.80
2019,03,20,00,32,8.80
2019,03,20,00,33,8.80
2019,03,20,00,34,8.80
2019,03,20,00,35,8.80
2019,03,20,00,36,8.80
2019,03,20,00,37,8.80
2019,03,20,00,38,8.80
2019,03,20,00,39,8.80
2019,03,20,00,40,8.80
2019,03,20,00,41,8.80
2019,03,20,00,42,8.80
2019,03,20,00,43,8.80
2019,03,20,00,44,8.80
2019,03,20,00,45,8.80
2019,03,20,00,46,8.80
2019,03,20,00,47,8.80
2019,03,20,00,48,8.80
2019,03,20,00,49,8.80
2019,03,20,00,50,8.80
2019,03,20,00,51,8.80
2019,03,20,00,52,8.80
2019,03,20,00,53,8.80
2019,03,20,00,54,8.80
2019,03,20,00,55,8.80
2019,03,20,00,56,8.80
2019,03,20,00,57,8.90
2019,03,20,00,58,8.90
2019,03,20,00,59,8.90
2019,03,20,01,00,9.00
2019,03,20,01,01,9.00
2019,03,20,01,02,9.10
2019,03,20,01,03,9.10
2019,03,20,01,04,9.10
2019,03,20,01,05,9.10
2019,03,20,01,06,9.10
2019,03,20,01,07,9.10
2019,03,20,01,08,9.10
2019,03,20,01,09,9.10
2019,03,20,01,10,9.10
2019,03,20,01,11,9.10
2019,03,20,01,12,9.00
2019,03,20,01,13,9.00
2019,03,20,01,14,9.00
2019,03,20,01,15,8.90
2019,03,20,01,16,8.90
2019,03,20,01,17,8.90
2019,03,20,01,18,8.90
2019,03,20,01,19,8.80
2019,03,20,01,20,8.80
2019,03,20,01,21,8.80
2019,03,20,01,22,8.80
2019,03,20,01,23,8.70
2019,03,20,01,24,8.70
2019,03,20,01,25,8.60
2019,03,20,01,26,8.50
2019,03,20,01,27,8.40
2019,03,20,01,28,8.40
2019,03,20,01,29,8.30
2019,03,20,01,30,8.30
2019,03,20,01,31,8.30
2019,03,20,01,32,8.30
2019,03,20,01,33,8.20
2019,03,20,01,34,8.20
2019,03,20,01,35,8.30
2019,03,20,01,36,8.30
2019,03,20,01,37,8.30
2019,03,20,01,38,8.30
2019,03,20,01,39,8.20
2019,03,20,01,40,8.20
2019,03,20,01,41,8.10
2019,03,20,01,42,8.00
2019,03,20,01,43,7.90
2019,03,20,01,44,7.80
2019,03,20,01,45,7.70
2019,03,20,01,46,7.70
2019,03,20,01,47,7.60
2019,03,20,01,48,7.60
2019,03,20,01,49,7.60
2019,03,20,01,50,7.50
2019,03,20,01,51,7.50
2019,03,20,01,52,7.50
2019,03,20,01,53,7.40
2019,03,20,01,54,7.40
2019,03,20,01,55,7.40
2019,03,20,01,56,7.40
2019,03,20,01,57,7.40
2019,03,20,01,58,7.40
2019,03,20,01,59,7.40
2019,03,20,02,00,7.40
2019,03,20,02,01,7.40
2019,03,20,02,02,7.30
2019,03,20,02,03,7.30
2019,03,20,02,04,7.30
2019,03,20,02,05,7.20
2019,03,20,02,06,7.20
2019,03,20,02,07,7.10
2019,03,20,02,08,7.00
2019,03,20,02,09,6.90
2019,03,20,02,10,6.80
2019,03,20,02,11,6.70
2019,03,20,02,12,6.60
2019,03,20,02,13,6.50
2019,03,20,02,14,6.40
2019,03,20,02,15,6.30
2019,03,20,02,16,6.20
2019,03,20,02,17,6.20
2019,03,20,02,18,6.10
2019,03,20,02,19,6.10
2019,03,20,02,20,6.10
2019,03,20,02,21,6.00
2019,03,20,02,22,6.00
2019,03,20,02,23,5.90
2019,03,20,02,24,5.90
2019,03,20,02,25,5.90
2019,03,20,02,26,5.90
2019,03,20,02,27,6.00
2019,03,20,02,28,6.00
2019,03,20,02,29,6.10
2019,03,20,02,30,6.20
2019,03,20,02,31,6.30
2019,03,20,02,32,6.30
2019,03,20,02,33,6.40
2019,03,20,02,34,6.50
2019,03,20,02,35,6.60
2019,03,20,02,36,6.70
2019,03,20,02,37,6.70
2019,03,20,02,38,6.80
2019,03,20,02,39,6.90
2019,03,20,02,40,7.00
2019,03,20,02,41,7.00
2019,03,20,02,42,7.10
2019,03,20,02,43,7.10
2019,03,20,02,44,7.10
2019,03,20,02,45,7.10
2019,03,20,02,46,7.10
2019,03,20,02,47,7.10
2019,03,20,02,48,7.10
2019,03,20,02,49,7.00
2019,03,20,02,50,7.00
2019,03,20,02,51,6.90
2019,03,20,02,52,6.80
2019,03,20,02,53,6.70
2019,03,20,02,54,6.60
2019,03,20,02,55,6.60
2019,03,20,02,56,6.50
2019,03,20,02,57,6.50
2019,03,20,02,58,6.40
2019,03,20,02,59,6.40
2019,03,20,03,00,6.30
2019,03,20,03,01,6.30
2019,03,20,03,02,6.30
2019,03,20,03,03,6.30
2019,03,20,03,04,6.30
2019,03,20,03,05,6.20
2019,03,20,03,06,6.20
2019,03,20,03,07,6.20
2019,03,20,03,08,6.20
2019,03,20,03,09,6.30
2019,03,20,03,10,6.30
2019,03,20,03,11,6.30
2019,03,20,03,12,6.30
2019,03,20,03,13,6.40
2019,03,20,03,14,6.50
2019,03,20,03,15,6.60
2019,03,20,03,16,6.70
2019,03,20,03,17,6.90
2019,03,20,03,18,7.00
2019,03,20,03,19,7.10
2019,03,20,03,20,7.20
2019,03,20,03,21,7.20
2019,03,20,03,22,7.30
2019,03,20,03,23,7.30
2019,03,20,03,24,7.30
2019,03,20,03,25,7.30
2019,03,20,03,26,7.30
2019,03,20,03,27,7.30
2019,03,20,03,28,7.30
2019,03,20,03,29,7.30
2019,03,20,03,30,7.30
2019,03,20,03,31,7.30
2019,03,20,03,32,7.30
2019,03,20,03,33,7.40
2019,03,20,03,34,7.40
2019,03,20,03,35,7.40
2019,03,20,03,36,7.40
2019,03,20,03,37,7.40
2019,03,20,03,38,7.30
2019,03,20,03,39,7.20
2019,03,20,03,40,7.10
2019,03,20,03,41,6.90
2019,03,20,03,42,6.80
2019,03,20,03,43,6.60
2019,03,20,03,44,6.50
2019,03,20,03,45,6.40
2019,03,20,03,46,6.30
2019,03,20,03,47,6.20
2019,03,20,03,48,6.10
2019,03,20,03,49,6.00
2019,03,20,03,50,5.80
2019,03,20,03,51,5.70
2019,03,20,03,52,5.60
2019,03,20,03,53,5.60
2019,03,20,03,54,5.50
2019,03,20,03,55,5.50
2019,03,20,03,56,5.50
2019,03,20,03,57,5.40
2019,03,20,03,58,5.40
2019,03,20,03,59,5.40
2019,03,20,04,00,5.40
2019,03,20,04,01,5.40
2019,03,20,04,02,5.40
2019,03,20,04,03,5.40
2019,03,20,04,04,5.50
2019,03,20,04,05,5.50
2019,03,20,04,06,5.60
2019,03,20,04,07,5.60
2019,03,20,04,08,5.70
2019,03,20,04,09,5.70
2019,03,20,04,10,5.70
2019,03,20,04,11,5.70
2019,03,20,04,12,5.80
2019,03,20,04,13,5.80
2019,03,20,04,14,5.80
2019,03,20,04,15,5.80
2019,03,20,04,16,5.80
2019,03,20,04,17,5.70
2019,03,20,04,18,5.60
2019,03,20,04,19,5.60
2019,03,20,04,20,5.50
2019,03,20,04,21,5.40
2019,03,20,04,22,5.30
2019,03,20,04,23,5.20
2019,03,20,04,24,5.20
2019,03,20,04,25,5.10
2019,03,20,04,26,5.00
2019,03,20,04,27,5.00
2019,03,20,04,28,4.90
2019,03,20,04,29,4.80
2019,03,20,04,30,4.70
2019,03,20,04,31,4.60
2019,03,20,04,32,4.60
2019,03,20,04,33,4.60
2019,03,20,04,34,4.60
2019,03,20,04,35,4.60
2019,03,20,04,36,4.60
2019,03,20,04,37,4.60
2019,03,20,04,38,4.60
2019,03,20,04,39,4.60
2019,03,20,04,40,4.60
2019,03,20,04,41,4.70
2019,03,20,04,42,4.70
2019,03,20,04,43,4.70
2019,03,20,04,44,4.70
2019,03,20,04,45,4.80
2019,03,20,04,46,4.80
2019,03,20,04,47,4.80
2019,03,20,04,48,4.80
2019,03,20,04,49,4.80
2019,03,20,04,50,4.80
2019,03,20,04,51,4.80
2019,03,20,04,52,4.80
2019,03,20,04,53,4.80
2019,03,20,04,54,4.80
2019,03,20,04,55,4.70
2019,03,20,04,56,4.70
2019,03,20,04,57,4.70
2019,03,20,04,58,4.70
2019,03,20,04,59,4.70
2019,03,20,05,00,4.70
2019,03,20,05,01,4.70
2019,03,20,05,02,4.70
2019,03,20,05,03,4.70
2019,03,20,05,04,4.70
2019,03,20,05,05,4.80
2019,03,20,05,06,4.80
2019,03,20,05,07,4.80
2019,03,20,05,08,4.80
2019,03,20,05,09,4.80
2019,03,20,05,10,4.80
2019,03,20,05,11,4.80
2019,03,20,05,12,4.70
2019,03,20,05,13,4.70
2019,03,20,05,14,4.70
2019,03,20,05,15,4.70
2019,03,20,05,16,4.70
2019,03,20,05,17,4.70
2019,03,20,05,18,4.70
2019,03,20,05,19,4.70
2019,03,20,05,20,4.70
2019,03,20,05,21,4.70
2019,03,20,05,22,4.60
2019,03,20,05,23,4.60
2019,03,20,05,24,4.60
2019,03,20,05,25,4.60
2019,03,20,05,26,4.60
2019,03,20,05,27,4.60
2019,03,20,05,28,4.60
2019,03,20,05,29,4.60
2019,03,20,05,30,4.60
2019,03,20,05,31,4.60
2019,03,20,05,32,4.60
2019,03,20,05,33,4.60
2019,03,20,05,34,4.70
2019,03,20,05,35,4.70
2019,03,20,05,36,4.70
2019,03,20,05,37,4.70
2019,03,20,05,38,4.70
2019,03,20,05,39,4.60
2019,03,20,05,40,4.60
2019,03,20,05,41,4.60
2019,03,20,05,42,4.50
2019,03,20,05,43,4.50
2019,03,20,05,44,4.50
2019,03,20,05,45,4.50
2019,03,20,05,46,4.50
2019,03,20,05,47,4.40
2019,03,20,05,48,4.40
2019,03,20,05,49,4.40
2019,03,20,05,50,4.40
2019,03,20,05,51,4.40
2019,03,20,05,52,4.40
2019,03,20,05,53,4.40
2019,03,20,05,54,4.40
2019,03,20,05,55,4.30
2019,03,20,05,56,4.40
2019,03,20,05,57,4.40
2019,03,20,05,58,4.40
2019,03,20,05,59,4.40
2019,03,20,06,00,4.30
2019,03,20,06,01,4.30
2019,03,20,06,02,4.30
2019,03,20,06,03,4.30
2019,03,20,06,04,4.30
2019,03,20,06,05,4.30
2019,03,20,06,06,4.40
2019,03,20,06,07,4.40
2019,03,20,06,08,4.40
2019,03,20,06,09,4.40
2019,03,20,06,10,4.40
2019,03,20,06,11,4.50
2019,03,20,06,12,4.50
2019,03,20,06,13,4.50
2019,03,20,06,14,4.50
2019,03,20,06,15,4.50
2019,03,20,06,16,4.50
2019,03,20,06,17,4.50
2019,03,20,06,18,4.60
2019,03,20,06,19,4.60
2019,03,20,06,20,4.60
2019,03,20,06,21,4.60
2019,03,20,06,22,4.60
2019,03,20,06,23,4.50
2019,03,20,06,24,4.50
2019,03,20,06,25,4.50
2019,03,20,06,26,4.50
2019,03,20,06,27,4.50
2019,03,20,06,28,4.50
2019,03,20,06,29,4.50
2019,03,20,06,30,4.50
2019,03,20,06,31,4.50
2019,03,20,06,32,4.60
2019,03,20,06,33,4.60
2019,03,20,06,34,4.70
2019,03,20,06,35,4.70
2019,03,20,06,36,4.70
2019,03,20,06,37,4.70
2019,03,20,06,38,4.70
2019,03,20,06,39,4.70
2019,03,20,06,40,4.70
2019,03,20,06,41,4.70
2019,03,20,06,42,4.70
2019,03,20,06,43,4.70
2019,03,20,06,44,4.70
2019,03,20,06,45,4.70
2019,03,20,06,46,4.70
2019,03,20,06,47,4.70
2019,03,20,06,48,4.70
2019,03,20,06,49,4.80
2019,03,20,06,50,4.80
2019,03,20,06,51,4.80
2019,03,20,06,52,4.80
2019,03,20,06,53,4.80
2019,03,20,06,54,4.80
2019,03,20,06,55,4.80
2019,03,20,06,56,4.80
2019,03,20,06,57,4.80
2019,03,20,06,58,4.80
2019,03,20,06,59,4.80
2019,03,20,07,00,4.70
2019,03,20,07,01,4.70
2019,03,20,07,02,4.70
2019,03,20,07,03,4.70
2019,03,20,07,04,4.70
2019,03,20,07,05,4.70
2019,03,20,07,06,4.70
2019,03,20,07,07,4.70
2019,03,20,07,08,4.70
2019,03,20,07,09,4.70
2019,03,20,07,10,4.80
2019,03,20,07,11,4.80
2019,03,20,07,12,4.80
2019,03,20,07,13,4.80
2019,03,20,07,14,4.80
2019,03,20,07,15,4.80
2019,03,20,07,16,4.80
2019,03,20,07,17,4.80
2019,03,20,07,18,4.80
2019,03,20,07,19,4.80
2019,03,20,07,20,4.80
2019,03,20,07,21,4.80
2019,03,20,07,22,4.80
2019,03,20,07,23,4.80
2019,03,20,07,24,4.80
2019,03,20,07,25,4.80
2019,03,20,07,26,4.80
2019,03,20,07,27,4.90
2019,03,20,07,28,4.90
2019,03,20,07,29,4.90
2019,03,20,07,30,4.90
2019,03,20,07,31,4.90
2019,03,20,07,32,4.90
2019,03,20,07,33,4.90
2019,03,20,07,34,4.90
2019,03,20,07,35,4.90
2019,03,20,07,36,5.00
2019,03,20,07,37,5.00
2019,03,20,07,38,5.00
2019,03,20,07,39,5.00
2019,03,20,07,40,5.00
2019,03,20,07,41,5.00
2019,03,20,07,42,5.10
2019,03,20,07,43,5.10
2019,03,20,07,44,5.10
2019,03,20,07,45,5.10
2019,03,20,07,46,5.10
2019,03,20,07,47,5.10
2019,03,20,07,48,5.10
2019,03,20,07,49,5.10
2019,03,20,07,50,5.10
2019,03,20,07,51,5.10
2019,03,20,07,52,5.10
2019,03,20,07,53,5.10
2019,03,20,07,54,5.00
2019,03,20,07,55,5.00
2019,03,20,07,56,4.90
2019,03,20,07,57,4.90
2019,03,20,07,58,4.90
2019,03,20,07,59,4.80
2019,03,20,08,00,4.80
2019,03,20,08,01,4.80
2019,03,20,08,02,4.80
2019,03,20,08,03,4.90
2019,03,20,08,04,4.90
2019,03,20,08,05,4.90
2019,03,20,08,06,4.90
2019,03,20,08,07,5.00
2019,03,20,08,08,5.00
2019,03,20,08,09,5.10
2019,03,20,08,10,5.10
2019,03,20,08,11,5.20
2019,03,20,08,12,5.20
2019,03,20,08,13,5.30
2019,03,20,08,14,5.30
2019,03,20,08,15,5.40
2019,03,20,08,16,5.40
2019,03,20,08,17,5.40
2019,03,20,08,18,5.40
2019,03,20,08,19,5.40
2019,03,20,08,20,5.50
2019,03,20,08,21,5.50
2019,03,20,08,22,5.60
2019,03,20,08,23,5.70
2019,03,20,08,24,5.80
2019,03,20,08,25,5.90
2019,03,20,08,26,5.90
2019,03,20,08,27,6.00
2019,03,20,08,28,6.10
2019,03,20,08,29,6.10
2019,03,20,08,30,6.20
2019,03,20,08,31,6.20
2019,03,20,08,32,6.30
2019,03,20,08,33,6.40
2019,03,20,08,34,6.40
2019,03,20,08,35,6.50
2019,03,20,08,36,6.60
2019,03,20,08,37,6.70
2019,03,20,08,38,6.80
2019,03,20,08,39,6.80
2019,03,20,08,40,6.90
2019,03,20,08,41,7.00
2019,03,20,08,42,7.00
2019,03,20,08,43,7.10
2019,03,20,08,44,7.20
2019,03,20,08,45,7.20
2019,03,20,08,46,7.20
2019,03,20,08,47,7.30
2019,03,20,08,48,7.40
2019,03,20,08,49,7.40
2019,03,20,08,50,7.50
2019,03,20,08,51,7.50
2019,03,20,08,52,7.60
2019,03,20,08,53,7.70
2019,03,20,08,54,7.80
2019,03,20,08,55,7.90
2019,03,20,08,56,8.00
2019,03,20,08,57,8.10
2019,03,20,08,58,8.20
2019,03,20,08,59,8.30
2019,03,20,09,00,8.40
2019,03,20,09,01,8.50
2019,03,20,09,02,8.60
2019,03,20,09,03,8.70
2019,03,20,09,04,8.80
2019,03,20,09,05,8.90
2019,03,20,09,06,8.90
2019,03,20,09,07,8.90
2019,03,20,09,08,8.90
2019,03,20,09,09,8.90
2019,03,20,09,10,8.90
2019,03,20,09,11,8.90
2019,03,20,09,12,9.00
2019,03,20,09,13,9.10
2019,03,20,09,14,9.10
2019,03,20,09,15,9.20
2019,03,20,09,16,9.20
2019,03,20,09,17,9.30
2019,03,20,09,18,9.50
2019,03,20,09,19,9.60
2019,03,20,09,20,9.80
2019,03,20,09,21,10.00
2019,03,20,09,22,10.20
2019,03,20,09,23,10.30
2019,03,20,09,24,10.40
2019,03,20,09,25,10.60
2019,03,20,09,26,10.70
2019,03,20,09,27,10.70
2019,03,20,09,28,10.80
2019,03,20,09,29,10.90
2019,03,20,09,30,11.00
2019,03,20,09,31,11.10
2019,03,20,09,32,11.20
2019,03,20,09,33,11.20
2019,03,20,09,34,11.30
2019,03,20,09,35,11.30
2019,03,20,09,36,11.30
2019,03,20,09,37,11.30
2019,03,20,09,38,11.30
2019,03,20,09,39,11.30
2019,03,20,09,40,11.30
2019,03,20,09,41,11.30
2019,03,20,09,42,11.30
2019,03,20,09,43,11.30
2019,03,20,09,44,11.30
2019,03,20,09,45,11.30
2019,03,20,09,46,11.30
2019,03,20,09,47,11.40
2019,03,20,09,48,11.40
2019,03,20,09,49,11.40
2019,03,20,09,50,11.40
2019,03,20,09,51,11.40
2019,03,20,09,52,11.40
2019,03,20,09,53,11.50
2019,03,20,09,54,11.50
2019,03,20,09,55,11.50
2019,03,20,09,56,11.60
2019,03,20,09,57,11.60
2019,03,20,09,58,11.60
2019,03,20,09,59,11.70
2019,03,20,10,00,11.70
2019,03,20,10,01,11.70
2019,03,20,10,02,11.70
2019,03,20,10,03,11.80
2019,03,20,10,04,11.80
2019,03,20,10,05,11.80
2019,03,20,10,06,11.90
2019,03,20,10,07,11.90
2019,03,20,10,08,11.90
2019,03,20,10,09,11.90
2019,03,20,10,10,11.90
2019,03,20,10,11,11.90
2019,03,20,10,12,11.90
2019,03,20,10,13,12.00
2019,03,20,10,14,12.00
2019,03,20,10,15,12.00
2019,03,20,10,16,12.10
2019,03,20,10,17,12.10
2019,03,20,10,18,12.20
2019,03,20,10,19,12.20
2019,03,20,10,20,12.30
2019,03,20,10,21,12.40
2019,03,20,10,22,12.40
2019,03,20,10,23,12.50
2019,03,20,10,24,12.60
2019,03,20,10,25,12.60
2019,03,20,10,26,12.70
2019,03,20,10,27,12.80
2019,03,20,10,28,12.80
2019,03,20,10,29,12.80
2019,03,20,10,30,12.90
2019,03,20,10,31,12.90
2019,03,20,10,32,13.00
2019,03,20,10,33,13.10
2019,03,20,10,34,13.10
2019,03,20,10,35,13.20
2019,03,20,10,36,13.20
2019,03,20,10,37,13.20
2019,03,20,10,38,13.20
2019,03,20,10,39,13.30
2019,03,20,10,40,13.30
2019,03,20,10,41,13.30
2019,03,20,10,42,13.30
2019,03,20,10,43,13.40
2019,03,20,10,44,13.40
2019,03,20,10,45,13.50
2019,03,20,10,46,13.60
2019,03,20,10,47,13.70
2019,03,20,10,48,13.80
2019,03,20,10,49,13.80
2019,03,20,10,50,13.90
2019,03,20,10,51,14.00
2019,03,20,10,52,14.00
2019,03,20,10,53,14.10
2019,03,20,10,54,14.10
2019,03,20,10,55,14.10
2019,03,20,10,56,14.20
2019,03,20,10,57,14.20
2019,03,20,10,58,14.20
2019,03,20,10,59,14.20
2019,03,20,11,00,14.20
2019,03,20,11,01,14.20
2019,03,20,11,02,14.30
2019,03,20,11,03,14.30
2019,03,20,11,04,14.30
2019,03,20,11,05,14.30
2019,03,20,11,06,14.40
2019,03,20,11,07,14.40
2019,03,20,11,08,14.40
2019,03,20,11,09,14.40
2019,03,20,11,10,14.30
2019,03,20,11,11,14.30
2019,03,20,11,12,14.20
2019,03,20,11,13,14.10
2019,03,20,11,14,14.00
2019,03,20,11,15,13.90
2019,03,20,11,16,13.80
2019,03,20,11,17,13.80
2019,03,20,11,18,13.70
2019,03,20,11,19,13.70
2019,03,20,11,20,13.70
2019,03,20,11,21,13.70
2019,03,20,11,22,13.70
2019,03,20,11,23,13.70
2019,03,20,11,24,13.80
2019,03,20,11,25,13.80
2019,03,20,11,26,13.80
2019,03,20,11,27,13.80
2019,03,20,11,28,13.80
2019,03,20,11,29,13.80
2019,03,20,11,30,13.80
2019,03,20,11,31,13.90
2019,03,20,11,32,13.90
2019,03,20,11,33,14.00
2019,03,20,11,34,14.10
2019,03,20,11,35,14.10
2019,03,20,11,36,14.20
2019,03,20,11,37,14.20
2019,03,20,11,38,14.30
2019,03,20,11,39,14.30
2019,03,20,11,40,14.30
2019,03,20,11,41,14.30
2019,03,20,11,42,14.30
2019,03,20,11,43,14.40
2019,03,20,11,44,14.40
2019,03,20,11,45,14.40
2019,03,20,11,46,14.40
2019,03,20,11,47,14.40
2019,03,20,11,48,14.40
2019,03,20,11,49,14.40
2019,03,20,11,50,14.40
2019,03,20,11,51,14.40
2019,03,20,11,52,14.40
2019,03,20,11,53,14.40
2019,03,20,11,54,14.50
2019,03,20,11,55,14.50
2019,03,20,11,56,14.50
2019,03,20,11,57,14.60
2019,03,20,11,58,14.60
2019,03,20,11,59,14.60
2019,03,20,12,00,14.60
2019,03,20,12,01,14.60
2019,03,20,12,02,14.60
2019,03,20,12,03,14.60
2019,03,20,12,04,14.60
2019,03,20,12,05,14.60
2019,03,20,12,06,14.60
2019,03,20,12,07,14.60
2019,03,20,12,08,14.60
2019,03,20,12,09,14.60
2019,03,20,12,10,14.60
2019,03,20,12,11,14.50
2019,03,20,12,12,14.40
2019,03,20,12,13,14.40
2019,03,20,12,14,14.40
2019,03,20,12,15,14.40
2019,03,20,12,16,14.50
2019,03,20,12,17,14.50
2019,03,20,12,18,14.50
2019,03,20,12,19,14.50
2019,03,20,12,20,14.40
2019,03,20,12,21,14.30
2019,03,20,12,22,14.30
2019,03,20,12,23,14.30
2019,03,20,12,24,14.30
2019,03,20,12,25,14.30
2019,03,20,12,26,14.30
2019,03,20,12,27,14.30
2019,03,20,12,28,14.40
2019,03,20,12,29,14.50
2019,03,20,12,30,14.60
2019,03,20,12,31,14.60
2019,03,20,12,32,14.50
2019,03,20,12,33,14.50
2019,03,20,12,34,14.40
2019,03,20,12,35,14.40
2019,03,20,12,36,14.30
2019,03,20,12,37,14.40
2019,03,20,12,38,14.40
2019,03,20,12,39,14.50
2019,03,20,12,40,14.50
2019,03,20,12,41,14.50
2019,03,20,12,42,14.60
2019,03,20,12,43,14.70
2019,03,20,12,44,14.70
2019,03,20,12,45,14.80
2019,03,20,12,46,14.80
2019,03,20,12,47,14.80
2019,03,20,12,48,14.90
2019,03,20,12,49,15.00
2019,03,20,12,50,15.00
2019,03,20,12,51,15.00
2019,03,20,12,52,15.00
2019,03,20,12,53,15.00
2019,03,20,12,54,15.00
2019,03,20,12,55,15.00
2019,03,20,12,56,15.00
2019,03,20,12,57,15.00
2019,03,20,12,58,15.00
2019,03,20,12,59,15.00
2019,03,20,13,00,15.00
2019,03,20,13,01,15.00
2019,03,20,13,02,15.00
2019,03,20,13,03,15.00
2019,03,20,13,04,15.00
2019,03,20,13,05,15.00
2019,03,20,13,06,15.00
2019,03,20,13,07,15.00
2019,03,20,13,08,15.00
2019,03,20,13,09,15.00
2019,03,20,13,10,15.00
2019,03,20,13,11,15.00
2019,03,20,13,12,15.00
2019,03,20,13,13,15.00
2019,03,20,13,14,14.90
2019,03,20,13,15,14.90
2019,03,20,13,16,14.90
2019,03,20,13,17,14.80
2019,03,20,13,18,14.80
2019,03,20,13,19,14.80
2019,03,20,13,20,14.70
2019,03,20,13,21,14.80
2019,03,20,13,22,14.80
2019,03,20,13,23,14.80
2019,03,20,13,24,14.80
2019,03,20,13,25,14.90
2019,03,20,13,26,15.00
2019,03,20,13,27,15.00
2019,03,20,13,28,15.00
2019,03,20,13,29,15.00
2019,03,20,13,30,15.00
2019,03,20,13,31,15.00
2019,03,20,13,32,15.10
2019,03,20,13,33,15.20
2019,03,20,13,34,15.20
2019,03,20,13,35,15.30
2019,03,20,13,36,15.30
2019,03,20,13,37,15.30
2019,03,20,13,38,15.30
2019,03,20,13,39,15.30
2019,03,20,13,40,15.30
2019,03,20,13,41,15.30
2019,03,20,13,42,15.40
2019,03,20,13,43,15.40
2019,03,20,13,44,15.50
2019,03,20,13,45,15.60
2019,03,20,13,46,15.60
2019,03,20,13,47,15.60
2019,03,20,13,48,15.60
2019,03,20,13,49,15.60
2019,03,20,13,50,15.60
2019,03,20,13,51,15.60
2019,03,20,13,52,15.60
2019,03,20,13,53,15.60
2019,03,20,13,54,15.50
2019,03,20,13,55,15.60
2019,03,20,13,56,15.60
2019,03,20,13,57,15.60
2019,03,20,13,58,15.60
2019,03,20,13,59,15.60
2019,03,20,14,00,15.60
2019,03,20,14,01,15.60
2019,03,20,14,02,15.60
2019,03,20,14,03,15.50
2019,03,20,14,04,15.50
2019,03,20,14,05,15.50
2019,03,20,14,06,15.50
2019,03,20,14,07,15.50
2019,03,20,14,08,15.50
2019,03,20,14,09,15.50
2019,03,20,14,10,15.60
2019,03,20,14,11,15.60
2019,03,20,14,12,15.60
2019,03,20,14,13,15.60
2019,03,20,14,14,15.60
2019,03,20,14,15,15.60
2019,03,20,14,16,15.70
2019,03,20,14,17,15.70
2019,03,20,14,18,15.70
2019,03,20,14,19,15.80
2019,03,20,14,20,15.80
2019,03,20,14,21,15.90
2019,03,20,14,22,15.90
2019,03,20,14,23,15.90
2019,03,20,14,24,15.90
2019,03,20,14,25,15.90
2019,03,20,14,26,16.00
2019,03,20,14,27,16.00
2019,03,20,14,28,16.00
2019,03,20,14,29,16.10
2019,03,20,14,30,16.10
2019,03,20,14,31,16.20
2019,03,20,14,32,16.20
2019,03,20,14,33,16.30
2019,03,20,14,34,16.30
2019,03,20,14,35,16.30
2019,03,20,14,36,16.30
2019,03,20,14,37,16.40
2019,03,20,14,38,16.40
2019,03,20,14,39,16.40
2019,03,20,14,40,16.40
2019,03,20,14,41,16.50
2019,03,20,14,42,16.50
2019,03,20,14,43,16.60
2019,03,20,14,44,16.60
2019,03,20,14,45,16.60
2019,03,20,14,46,16.60
2019,03,20,14,47,16.60
2019,03,20,14,48,16.60
2019,03,20,14,49,16.70
2019,03,20,14,50,16.70
2019,03,20,14,51,16.70
2019,03,20,14,52,16.60
2019,03,20,14,53,16.60
2019,03,20,14,54,16.60
2019,03,20,14,55,16.60
2019,03,20,14,56,16.60
2019,03,20,14,57,16.60
2019,03,20,14,58,16.60
2019,03,20,14,59,16.60
2019,03,20,15,00,16.60
2019,03,20,15,01,16.60
2019,03,20,15,02,16.60
2019,03,20,15,03,16.60
2019,03,20,15,04,16.60
2019,03,20,15,05,16.60
2019,03,20,15,06,16.70
2019,03,20,15,07,16.70
2019,03,20,15,08,16.70
2019,03,20,15,09,16.80
2019,03,20,15,10,16.90
2019,03,20,15,11,16.90
2019,03,20,15,12,17.00
2019,03,20,15,13,17.10
2019,03,20,15,14,17.20
2019,03,20,15,15,17.20
2019,03,20,15,16,17.20
2019,03,20,15,17,17.30
2019,03,20,15,18,17.30
2019,03,20,15,19,17.30
2019,03,20,15,20,17.30
2019,03,20,15,21,17.30
2019,03,20,15,22,17.40
2019,03,20,15,23,17.40
2019,03,20,15,24,17.40
2019,03,20,15,25,17.40
2019,03,20,15,26,17.40
2019,03,20,15,27,17.30
2019,03,20,15,28,17.30
2019,03,20,15,29,17.30
2019,03,20,15,30,17.20
2019,03,20,15,31,17.10
2019,03,20,15,32,17.10
2019,03,20,15,33,17.10
2019,03,20,15,34,17.10
2019,03,20,15,35,17.10
2019,03,20,15,36,17.10
2019,03,20,15,37,17.10
2019,03,20,15,38,17.20
2019,03,20,15,39,17.20
2019,03,20,15,40,17.30
2019,03,20,15,41,17.30
2019,03,20,15,42,17.30
2019,03,20,15,43,17.30
2019,03,20,15,44,17.30
2019,03,20,15,45,17.40
2019,03,20,15,46,17.40
2019,03,20,15,47,17.40
2019,03,20,15,48,17.50
2019,03,20,15,49,17.50
2019,03,20,15,50,17.50
2019,03,20,15,51,17.50
2019,03,20,15,52,17.50
2019,03,20,15,53,17.50
2019,03,20,15,54,17.50
2019,03,20,15,55,17.50
2019,03,20,15,56,17.50
2019,03,20,15,57,17.50
2019,03,20,15,58,17.60
2019,03,20,15,59,17.60
2019,03,20,16,00,17.70
2019,03,20,16,01,17.70
2019,03,20,16,02,17.80
2019,03,20,16,03,17.80
2019,03,20,16,04,17.90
2019,03,20,16,05,17.90
2019,03,20,16,06,18.00
2019,03,20,16,07,18.00
2019,03,20,16,08,18.10
2019,03,20,16,09,18.10
2019,03,20,16,10,18.20
2019,03,20,16,11,18.30
2019,03,20,16,12,18.30
2019,03,20,16,13,18.40
2019,03,20,16,14,18.40
2019,03,20,16,15,18.40
2019,03,20,16,16,18.40
2019,03,20,16,17,18.50
2019,03,20,16,18,18.50
2019,03,20,16,19,18.60
2019,03,20,16,20,18.60
2019,03,20,16,21,18.70
2019,03,20,16,22,18.70
2019,03,20,16,23,18.70
2019,03,20,16,24,18.80
2019,03,20,16,25,18.70
2019,03,20,16,26,18.70
2019,03,20,16,27,18.70
2019,03,20,16,28,18.70
2019,03,20,16,29,18.70
2019,03,20,16,30,18.70
2019,03,20,16,31,18.70
2019,03,20,16,32,18.70
2019,03,20,16,33,18.70
2019,03,20,16,34,18.70
2019,03,20,16,35,18.70
2019,03,20,16,36,18.70
2019,03,20,16,37,18.70
2019,03,20,16,38,18.80
2019,03,20,16,39,18.80
2019,03,20,16,40,18.80
2019,03,20,16,41,18.80
2019,03,20,16,42,18.80
2019,03,20,16,43,18.80
2019,03,20,16,44,18.80
2019,03,20,16,45,18.80
2019,03,20,16,46,18.80
2019,03,20,16,47,18.80
2019,03,20,16,48,18.70
2019,03,20,16,49,18.70
2019,03,20,16,50,18.70
2019,03,20,16,51,18.70
2019,03,20,16,52,18.80
2019,03,20,16,53,18.80
2019,03,20,16,54,18.80
2019,03,20,16,55,18.80
2019,03,20,16,56,18.80
2019,03,20,16,57,18.80
2019,03,20,16,58,18.80
2019,03,20,16,59,18.80
2019,03,20,17,00,18.70
2019,03,20,17,01,18.70
2019,03,20,17,02,18.70
2019,03,20,17,03,18.70
2019,03,20,17,04,18.70
2019,03,20,17,05,18.70
2019,03,20,17,06,18.70
2019,03,20,17,07,18.70
2019,03,20,17,08,18.60
2019,03,20,17,09,18.60
2019,03,20,17,10,18.50
2019,03,20,17,11,18.50
2019,03,20,17,12,18.50
2019,03,20,17,13,18.50
2019,03,20,17,14,18.60
2019,03,20,17,15,18.60
2019,03,20,17,16,18.60
2019,03,20,17,17,18.60
2019,03,20,17,18,18.60
2019,03,20,17,19,18.60
2019,03,20,17,20,18.70
2019,03,20,17,21,18.70
2019,03,20,17,22,18.70
2019,03,20,17,23,18.70
2019,03,20,17,24,18.80
2019,03,20,17,25,18.80
2019,03,20,17,26,18.90
2019,03,20,17,27,18.90
2019,03,20,17,28,19.00
2019,03,20,17,29,19.00
2019,03,20,17,30,19.10
2019,03,20,17,31,19.10
2019,03,20,17,32,19.20
2019,03,20,17,33,19.20
2019,03,20,17,34,19.30
2019,03,20,17,35,19.30
2019,03,20,17,36,19.30
2019,03,20,17,37,19.40
2019,03,20,17,38,19.40
2019,03,20,17,39,19.40
2019,03,20,17,40,19.40
2019,03,20,17,41,19.40
2019,03,20,17,42,19.40
2019,03,20,17,43,19.40